Location: Anjeux
(47.8815°N, 6.2076°E)
Time: 15:23:20
(UTC+00:00)

Cosmos 2237 Rocket - Pass Details

Date: 05 March 2021
Orbit: 835 x 850 km, 71.0° (Epoch: 14 April)

Event Time Altitude Azimuth Distance (km) Brightness Sun altitude
Rises 04:58:28 0° 335° (NNW) 3,423 5.2 -12.5°
Reaches altitude 10° 05:01:02 10° 341° (NNW) 2,483 4.5 -12.1°
Maximum altitude 05:06:33 49° 56° (NE) 1,088 3.2 -11.1°
Drops below altitude 10° 05:12:01 10° 130° (SE) 2,459 5.4 -10.2°
Sets 05:14:32 0° 136° (SE) 3,388 6.0 -9.8°
